Location: Melara
(45.0500°N, 11.1833°E)
Time: 18:52:57
(UTC+00:00)

QB50P2 - Visible Passes

Search period start: 26 May 2024 00:00
Search period end: 05 June 2024 00:00
Orbit: 567 x 578 km, 98.0° (Epoch: 25 May)

Date Brightness Start Highest point End Pass type
(mag) Time Alt. Az. Time Alt. Az. Time Alt. Az.
26 May ? 00:53:56 10° NE 00:56:27 16° E 00:58:55 10° SE visible
26 May ? 02:27:54 10° N 02:31:51 47° WNW 02:35:25 12° SW visible
27 May ? 00:56:26 10° NE 00:59:05 17° E 01:01:43 10° SE visible
27 May ? 02:30:33 10° N 02:34:27 44° WNW 02:38:06 11° SW visible
28 May ? 00:58:56 10° NE 01:01:42 18° E 01:04:28 10° SE visible
28 May ? 02:33:11 10° N 02:37:02 41° WNW 02:40:46 11° SW visible
29 May ? 01:01:25 10° NE 01:04:19 19° E 01:07:11 10° SE visible
29 May ? 02:35:48 10° N 02:39:37 39° WNW 02:43:23 10° SW visible
30 May ? 01:03:54 10° NE 01:06:54 20° E 01:09:52 10° SE visible
30 May ? 02:38:24 10° N 02:42:10 37° WNW 02:45:54 10° SW visible
31 May ? 01:06:22 10° NE 01:09:29 21° E 01:12:30 10° SE visible
31 May ? 02:40:59 10° N 02:44:42 35° WNW 02:48:24 10° SW visible
01 Jun ? 01:08:50 10° NE 01:12:02 22° E 01:15:05 11° SE visible
01 Jun ? 02:43:34 10° N 02:47:14 33° WNW 02:50:52 10° SW visible
02 Jun ? 01:11:17 10° NE 01:14:34 23° E 01:17:40 11° SSE visible
02 Jun ? 02:46:07 10° N 02:49:44 31° WNW 02:53:19 10° SW visible
03 Jun ? 01:13:44 10° NE 01:17:06 24° E 01:20:14 11° SSE visible
03 Jun ? 02:48:40 10° N 02:52:13 30° WNW 02:55:45 10° SW visible
04 Jun ? 01:16:10 10° NE 01:19:36 26° E 01:22:46 11° SSE visible
04 Jun ? 02:51:12 10° N 02:54:42 28° WNW 02:58:10 10° SW visible
